[[{"header":{"parameterUnit":"m.s-1","parameterCategory":1,"la1":30.2991,"la2":30.254,"lo1":-89.0895,"lo2":-89.0444,"dy":0.0017,"dx":0.0017,"nx":28,"ny":28,"refTime":"2024-07-08T09:00:00:Z","depth":0,"parameterNumber":2,"parameterNumberName":"U-component_of_WINDS"},"data":[0,0,0,0,0,0,0,0,0,0,0,0,0,0,0,0,0,0,0,0,0,0,0,0,0,0,0,0,0,0,0,0,0,0,0,0,0,0,0,0,0,0,0,0,0,0,0,0,0,0,0,0,0,0,0,0,0,0,3.8365,3.8366,0,3.8482,3.8483,3.8485,3.8466,3.8464,3.8462,3.846,3.8581,3.8586,3.8591,0,0,0,0,0,0,0,0,0,0,0,0,0,3.8124,3.8128,3.8364,3.8366,3.8367,3.8482,3.8483,3.8485,3.8467,3.8464,3.8462,3.8459,3.858,3.8586,3.8592,0,0,0,0,0,0,0,0,0,0,0,0,0,3.8234,3.813,3.8364,3.8372,3.8374,3.8481,3.8483,3.8485,3.8467,3.8464,3.8461,3.8458,3.8578,3.8585,3.8593,3.87,0,0,3.8616,3.8619,0,0,0,0,0,0,0,0,3.8227,3.8242,3.8369,3.8372,3.8374,3.8456,3.8443,3.8557,3.8468,3.8432,3.846,3.8457,3.8542,3.8553,3.8581,3.8706,3.8711,3.8617,3.8621,3.8625,3.8627,0,0,0,0,0,0,0,3.822,3.8237,3.8411,3.8371,3.8374,3.8369,3.8382,3.8464,3.8503,3.8435,3.8434,3.8448,3.8543,3.8574,3.8584,3.8713,3.8616,3.8623,3.8628,3.8631,3.8929,3.8933,0,0,0,0,0,0,3.821,3.8231,3.8407,3.8414,3.8292,3.8376,3.839,3.8433,3.8502,3.8509,3.845,3.8446,3.8562,3.8575,3.8588,3.8717,3.8625,3.8632,3.8636,3.8926,3.893,3.8934,0,0,0,0,0,0,3.8205,3.8226,3.8403,3.8323,3.8345,3.8384,3.8432,3.8437,3.8468,3.8513,3.852,3.8475,3.8561,3.8577,3.8672,3.8721,3.8635,3.8642,3.8922,3.8927,3.8932,3.8977,0,0,0,0,0,0,3.8198,3.8224,3.8266,3.8324,3.8349,3.8485,3.8435,3.8441,3.8481,3.8477,3.8538,3.8545,3.8559,3.8661,3.868,3.873,3.8648,3.8918,3.8924,3.893,3.8971,3.8983,3.8993,0,0,0,0,0,3.819,3.8274,3.8268,3.8289,3.8402,3.8488,3.8502,3.8516,3.8485,3.8527,3.8556,3.8544,3.8713,3.867,3.8692,3.8745,3.8915,3.8923,3.893,3.8966,3.8981,3.8993,0,0,0,0,0,0,3.8222,3.8282,3.8276,3.8382,3.8429,3.8484,3.8537,3.8531,3.8589,3.8583,3.8598,3.8612,3.8708,3.8736,3.8688,3.8852,3.8809,3.8822,3.883,3.8844,3.8854,3.8846,3.8654,0,0,0,0,0,3.8241,3.8306,3.8355,3.8444,3.8468,3.8498,3.8536,3.8543,3.8593,3.8614,3.865,3.8699,3.8763,3.8805,3.8867,3.8975,3.8988,3.9022,3.9033,3.9042,3.9052,3.911,3.9126,3.8958,3.8958,3.8958,0,0,3.8282,3.8323,3.8363,3.8451,3.8489,3.8555,3.8516,3.8588,3.8637,3.8625,3.8716,3.8744,3.88,3.8901,3.8948,3.8928,3.9101,3.9052,3.9058,3.9064,3.9119,3.9135,3.9149,3.8964,3.8963,3.8962,0,0,3.839,3.8427,3.8505,3.8543,3.8601,3.862,3.8639,3.8695,3.8712,3.8804,3.8795,3.8854,3.8965,3.9004,3.9039,3.916,3.9151,3.918,3.9237,3.9293,3.9306,3.9318,3.936,3.9375,3.919,3.919,3.9191,0,3.8433,3.8533,3.8545,3.8618,3.8657,3.8648,3.8726,3.8763,3.8838,3.8864,3.8841,3.8978,3.9015,3.9125,3.9155,3.9183,3.9204,3.9173,3.9303,3.9315,3.9326,3.9367,3.9383,3.9193,3.9193,3.9193,3.9193,0,3.8582,3.8651,3.8707,3.8779,3.8824,3.8899,3.8922,3.8966,3.8969,3.899,3.9083,3.9127,3.9197,3.9224,3.9227,3.9334,3.9319,3.93,3.9257,3.9345,3.9383,3.9399,3.9198,3.9197,3.9196,3.9195,0,0,3.8714,3.8791,3.8811,3.8843,3.8905,3.8959,3.9033,3.9101,3.9137,3.9189,3.9251,3.9344,3.9325,3.9365,3.9373,3.9422,3.9514,3.9396,3.9397,3.9416,3.9633,3.9647,3.9665,3.9508,3.9511,3.9513,3.9628,0,3.8827,3.8958,3.8971,3.9088,3.9151,3.9143,3.9208,3.9253,3.9275,3.9331,3.9356,3.9421,3.9392,3.9416,3.9464,3.9492,3.9558,3.9484,3.9565,3.9568,3.9551,3.9685,3.9701,3.9806,3.9643,3.9646,3.9647,0,3.8977,3.9032,3.9155,3.9207,3.9234,3.9292,3.9354,3.9408,3.9459,3.9471,3.9515,3.9515,3.9591,3.9546,3.965,3.96,3.9633,3.9652,3.9656,3.9664,3.9613,3.9696,3.9841,3.9856,3.9671,3.9669,3.9668,0,3.906,3.9165,3.9251,3.9279,3.9342,3.9383,3.9411,3.9458,3.9497,3.9552,3.9577,3.964,3.9674,3.9723,3.974,3.9706,3.9843,3.9799,3.9855,3.9855,3.9884,3.9882,4.0036,3.9907,3.9907,3.9907,3.9906,0,3.9184,3.9259,3.9289,3.9342,3.9426,3.944,3.9523,3.9549,3.9591,3.9649,3.9646,3.97,3.972,3.9778,3.9792,3.9875,3.9891,3.9903,3.9905,3.9903,3.9901,3.9925,3.9918,3.9911,3.991,3.9909,3.9908,0,3.9291,3.9314,3.9407,3.9459,3.9474,3.9533,3.9577,3.9628,3.9649,3.9722,3.974,3.9773,3.984,3.9862,3.9944,3.9954,4.0051,4.0048,4.0034,4.0034,4.0088,4.0082,4.0262,4.0286,4.0142,4.0143,4.0144,0,3.9368,3.9426,3.9483,3.9521,3.9551,3.9613,3.9653,3.9668,3.971,3.9771,3.9814,3.9881,3.9935,4.0043,4.0074,4.0136,4.0134,4.0193,4.0144,4.0138,4.0134,4.013,4.0135,4.0202,4.0204,4.0205,4.0206,0,3.9503,3.9511,3.9569,3.963,3.9677,3.9726,3.9774,3.9805,3.9828,3.9874,3.9943,3.9985,4.0067,4.0133,4.0197,4.0225,4.0219,4.0221,4.0237,4.0234,4.0224,4.0229,4.0058,4.0217,4.0216,4.0215,4.0214,4.0214,3.9597,3.9647,3.9695,3.9759,3.9796,3.984,3.989,3.9917,3.9974,4.0042,4.0048,4.0122,4.0169,4.0253,4.0285,4.0342,4.0326,4.0349,4.0355,4.0361,4.0364,4.0215,4.0354,4.0354,4.0354,4.0353,4.0353,0,3.9731,3.9761,3.982,3.9885,3.9935,3.9925,3.9976,4.0018,4.0083,4.0128,4.0181,4.0259,4.0322,4.0358,4.0421,4.046,4.0459,4.0477,4.0474,4.048,4.0376,4.0355,4.0476,4.0476,4.0476,4.0476,4.0476,4.0476,3.9807,3.9891,3.9904,4.0006,4.0036,4.0108,4.0138,4.0178,4.0213,4.0301,4.0353,4.0376,4.0417,4.0483,4.054,4.0549,4.0572,4.0591,4.0598,4.05,4.0487,4.0475,4.0456,4.0596,4.0596,4.0697,4.0698,4.0699]},{"header":{"parameterUnit":"m.s-1","parameterCategory":1,"la1":30.2991,"la2":30.254,"lo1":-89.0895,"lo2":-89.0444,"dy":0.0017,"dx":0.0017,"nx":28,"ny":28,"refTime":"2024-07-08T09:00:00:Z","depth":0,"parameterNumber":3,"parameterNumberName":"V-component_of_WINDS"},"data":[0,0,0,0,0,0,0,0,0,0,0,0,0,0,0,0,0,0,0,0,0,0,0,0,0,0,0,0,0,0,0,0,0,0,0,0,0,0,0,0,0,0,0,0,0,0,0,0,0,0,0,0,0,0,0,0,0,0,6.0599,6.0599,0,6.0618,6.0618,6.0618,6.0576,6.0575,6.0573,6.0572,6.0588,6.0589,6.0591,0,0,0,0,0,0,0,0,0,0,0,0,0,6.0524,6.0526,6.0599,6.0599,6.06,6.0618,6.0618,6.0618,6.0576,6.0575,6.0573,6.0571,6.0587,6.0589,6.0591,0,0,0,0,0,0,0,0,0,0,0,0,0,6.0551,6.0526,6.0599,6.0581,6.0579,6.0618,6.0618,6.0618,6.0576,6.0574,6.0572,6.0571,6.0586,6.0589,6.0591,6.0647,0,0,6.0599,6.06,0,0,0,0,0,0,0,0,6.055,6.0554,6.0583,6.0582,6.0581,6.0593,6.0597,6.0628,6.0577,6.0578,6.0572,6.057,6.0591,6.0593,6.06,6.0648,6.0648,6.0599,6.0601,6.0602,6.0602,0,0,0,0,0,0,0,6.0548,6.0553,6.0606,6.0584,6.0582,6.0571,6.0572,6.0603,6.0595,6.0577,6.0574,6.0577,6.0589,6.0598,6.06,6.0648,6.0599,6.0601,6.0603,6.0604,6.0743,6.0745,0,0,0,0,0,0,6.0549,6.0552,6.0606,6.0607,6.056,6.0574,6.0576,6.0591,6.0595,6.0593,6.0579,6.0575,6.0595,6.0598,6.0601,6.0666,6.0602,6.0604,6.0605,6.074,6.0743,6.0745,0,0,0,0,0,0,6.0547,6.0554,6.0605,6.0579,6.0584,6.0577,6.0595,6.0592,6.0601,6.0596,6.0594,6.0589,6.0593,6.0597,6.0636,6.0666,6.0605,6.0607,6.0738,6.0741,6.0744,6.0798,0,0,0,0,0,0,6.0545,6.0554,6.0575,6.0579,6.0586,6.0641,6.0596,6.0594,6.0606,6.0601,6.0605,6.0604,6.0592,6.0633,6.0639,6.0669,6.0609,6.0735,6.0739,6.0743,6.0793,6.0803,6.0811,0,0,0,0,0,6.0543,6.0589,6.0577,6.0583,6.0613,6.0643,6.0646,6.0633,6.0608,6.0629,6.0626,6.0604,6.0662,6.0637,6.0643,6.0675,6.0733,6.0738,6.0743,6.079,6.0801,6.081,0,0,0,0,0,0,6.0587,6.0589,6.0576,6.0624,6.0634,6.0636,6.0662,6.0645,6.0661,6.0655,6.0637,6.0638,6.068,6.0681,6.0653,6.0729,6.0693,6.07,6.0727,6.0737,6.0746,6.0744,6.0611,0,0,0,0,0,6.0603,6.0628,6.0628,6.0671,6.0676,6.0669,6.0681,6.067,6.0679,6.0682,6.0682,6.069,6.071,6.0724,6.0742,6.0794,6.0794,6.0818,6.0827,6.0834,6.084,6.0867,6.0878,6.0762,6.0762,6.0762,0,0,6.0635,6.0639,6.0656,6.068,6.0686,6.0712,6.0672,6.0701,6.0719,6.0686,6.0723,6.0723,6.0731,6.0777,6.0797,6.0779,6.0872,6.084,6.0846,6.0848,6.0873,6.0884,6.0894,6.0765,6.0764,6.0764,0,0,6.0706,6.0712,6.0749,6.0756,6.0767,6.0761,6.0771,6.0775,6.0775,6.0812,6.0787,6.0809,6.0844,6.0851,6.0859,6.0935,6.0915,6.0941,6.0986,6.1013,6.1022,6.103,6.1057,6.1067,6.0947,6.0947,6.0947,0,6.0744,6.0783,6.077,6.0801,6.0812,6.0785,6.0821,6.0829,6.0844,6.0852,6.0832,6.0877,6.088,6.0927,6.0946,6.0953,6.0962,6.094,6.1022,6.103,6.1037,6.1063,6.1073,6.095,6.095,6.095,6.0949,0,6.0829,6.0857,6.0885,6.0903,6.0917,6.0951,6.0942,6.0958,6.0946,6.0943,6.0981,6.0984,6.1003,6.1014,6.1001,6.1059,6.1048,6.1025,6.0989,6.1052,6.1076,6.1085,6.0955,6.0954,6.0953,6.0952,0,0,6.0927,6.0939,6.0949,6.0957,6.0967,6.0988,6.102,6.104,6.1054,6.1066,6.1092,6.1124,6.1103,6.1113,6.1101,6.1125,6.1185,6.11,6.11,6.1116,6.1249,6.1266,6.1277,6.1172,6.1174,6.1176,6.1248,0,6.0998,6.1056,6.1045,6.11,6.1126,6.1101,6.1129,6.1138,6.1136,6.1156,6.1153,6.1176,6.1148,6.1153,6.1176,6.1173,6.1212,6.1168,6.1196,6.1197,6.1194,6.129,6.1307,6.1375,6.1257,6.1259,6.126,0,6.1088,6.1105,6.1164,6.1171,6.1181,6.1207,6.1225,6.1245,6.1254,6.1251,6.1263,6.1247,6.1279,6.1243,6.1286,6.1257,6.1267,6.1268,6.127,6.1272,6.1232,6.1293,6.1397,6.1407,6.1275,6.1273,6.1272,0,6.1154,6.1192,6.1232,6.1239,6.1249,6.1267,6.1272,6.128,6.1293,6.1308,6.1316,6.1334,6.1344,6.1359,6.1348,6.1323,6.1393,6.1356,6.1391,6.1391,6.1406,6.1405,6.1512,6.1414,6.1414,6.1413,6.1413,0,6.1234,6.127,6.1262,6.1286,6.1326,6.1314,6.1354,6.1355,6.1363,6.1386,6.1366,6.1388,6.1373,6.1395,6.1387,6.1424,6.1428,6.1426,6.1423,6.1428,6.1428,6.1434,6.1429,6.1416,6.1416,6.1415,6.1415,0,6.1314,6.1309,6.1351,6.1358,6.136,6.139,6.1394,6.1417,6.1414,6.1445,6.1451,6.1446,6.147,6.1462,6.1486,6.1481,6.1528,6.152,6.1526,6.1523,6.1558,6.1555,6.1673,6.1687,6.158,6.1581,6.1582,0,6.1365,6.1393,6.1403,6.1418,6.1425,6.1449,6.1463,6.1452,6.1467,6.1481,6.1502,6.1524,6.1542,6.1581,6.1579,6.1598,6.159,6.163,6.1592,6.1596,6.159,6.1588,6.1591,6.1637,6.1638,6.1639,6.164,0,6.1456,6.1453,6.1474,6.1495,6.1513,6.1528,6.1542,6.1555,6.1545,6.1563,6.1588,6.1602,6.1629,6.1651,6.1669,6.1672,6.1654,6.1652,6.1661,6.1665,6.1668,6.1667,6.1546,6.1649,6.1648,6.1647,6.1647,6.1647,6.1522,6.1547,6.1558,6.1583,6.1592,6.1606,6.1628,6.1629,6.165,6.1672,6.1664,6.1693,6.1702,6.1724,6.173,6.1752,6.1736,6.1749,6.1753,6.1756,6.176,6.1665,6.1755,6.1755,6.1755,6.1754,6.1754,0,6.1612,6.1619,6.1642,6.1663,6.1683,6.1666,6.1681,6.1698,6.1724,6.1735,6.1753,6.1782,6.1804,6.1805,6.1825,6.1843,6.1835,6.1848,6.1846,6.1848,6.1773,6.1763,6.1854,6.1854,6.1854,6.1854,6.1854,6.1854,6.1661,6.1702,6.17,6.1745,6.175,6.178,6.179,6.1802,6.1811,6.1845,6.1864,6.1865,6.1871,6.1892,6.1912,6.1911,6.1919,6.1936,6.1932,6.1863,6.1853,6.1843,6.1834,6.1938,6.1938,6.2005,6.2005,6.2006]}]]